period_start,C,m1,H,J0,J1,J2,J3,J4,J5,JA,JB,JC,JD,JJ,JK,JN,#
2018-07-14 00:04:34,-0.00,0.06,0.00,24.76,28.78,31.81,13.91,47.96,1016.62,2021.05,3381.83,3065.93,3524.12,600.07,592.45,18.61,0000 0000 0000 0000 000000
2018-07-14 00:09:35,0.02,0.06,0.00,24.74,28.77,31.78,13.91,47.97,1016.62,2021.32,3381.93,3065.98,3524.49,600.02,592.51,18.67,0000 0000 0000 0000 000000
2018-07-14 00:14:36,0.01,0.07,0.00,24.74,28.75,31.76,13.91,47.84,1016.63,2021.66,3381.96,3065.99,3524.77,600.05,592.68,18.72,0000 0000 0000 0000 000000
2018-07-14 00:19:37,0.01,0.07,0.00,24.71,28.74,31.76,13.86,47.84,1016.64,2021.78,3381.98,3065.99,3524.83,599.95,592.57,18.77,0000 0000 0000 0000 000000
2018-07-14 00:24:38,0.06,0.07,0.00,24.69,28.72,31.76,13.91,47.88,1016.85,2021.94,3381.38,3065.43,3524.32,599.99,592.76,18.82,0000 0000 0000 0000 000000
2018-07-14 00:29:40,-0.00,0.07,0.00,24.69,28.71,31.71,13.85,47.73,1017.06,2021.97,3381.09,3065.19,3524.00,599.90,592.87,18.87,0000 0000 0000 0000 000000
2018-07-14 00:34:41,-0.01,0.07,0.00,24.67,28.70,31.72,13.94,47.74,1017.08,2021.98,3381.14,3065.53,3524.00,599.83,592.82,18.92,0000 0000 0000 0000 000000
2018-07-14 00:39:42,-0.01,0.07,0.00,24.65,28.67,31.69,13.89,47.72,1017.10,2021.99,3381.27,3065.84,3524.01,600.03,592.99,18.97,0000 0000 0000 0000 000000
2018-07-14 00:44:43,-0.00,0.07,0.00,24.65,28.66,31.69,13.87,47.69,1017.10,2021.99,3381.65,3065.97,3524.02,599.89,592.92,19.02,0000 0000 0000 0000 000000
2018-07-14 00:49:45,-0.00,0.07,0.00,24.64,28.65,31.67,13.84,47.69,1017.11,2021.99,3381.56,3065.98,3524.02,600.07,593.06,19.07,0000 0000 0000 0000 000000
2018-07-14 00:54:46,0.00,0.07,0.00,24.63,28.63,31.64,13.85,47.82,1017.12,2021.99,3381.55,3065.99,3524.05,599.75,592.80,19.12,0000 0000 0000 0000 000000
2018-07-14 00:59:48,-0.00,0.07,0.00,24.61,28.62,31.61,13.86,47.86,1017.17,2022.00,3381.20,3065.99,3524.04,599.68,592.97,19.17,0000 0000 0000 0000 000000
2018-07-14 01:04:49,-0.01,0.07,0.00,24.60,28.60,31.63,13.86,47.90,1017.41,2022.00,3381.36,3065.99,3524.07,599.87,593.31,19.22,0000 0000 0000 0000 000000
2018-07-14 01:09:50,-0.00,0.07,0.00,24.60,28.60,31.63,13.88,47.88,1017.56,2022.02,3381.54,3066.00,3524.33,599.67,593.16,19.27,0000 0000 0000 0000 000000
2018-07-14 01:14:52,-0.00,0.07,0.00,24.59,28.57,31.60,13.88,48.02,1017.59,2022.03,3381.62,3066.00,3524.44,600.07,593.44,19.32,0000 0000 0000 0000 000000
2018-07-14 01:19:53,-0.00,0.07,0.00,24.58,28.56,31.58,13.95,48.07,1017.59,2022.06,3381.78,3066.03,3524.70,600.07,593.46,19.37,0000 0000 0000 0000 000000
2018-07-14 01:24:54,0.01,0.07,0.00,24.57,28.55,31.57,13.90,47.93,1017.59,2022.18,3381.87,3066.06,3524.91,599.86,593.36,19.42,0000 0000 0000 0000 000000
2018-07-14 01:29:55,0.04,0.07,0.00,24.55,28.54,31.55,13.84,47.88,1017.60,2022.62,3381.97,3066.49,3524.98,599.92,593.40,19.47,0000 0000 0000 0000 000000
2018-07-14 01:34:57,-0.01,0.07,0.00,24.54,28.52,31.53,13.89,47.82,1017.60,2022.62,3381.96,3066.59,3524.96,599.93,593.48,19.52,0000 0000 0000 0000 000000
2018-07-14 01:39:58,0.01,0.07,0.00,24.54,28.51,31.52,13.93,47.92,1017.59,2022.81,3381.98,3066.88,3524.99,599.90,593.42,19.57,0000 0000 0000 0000 000000
2018-07-14 01:44:59,0.00,0.07,0.00,24.53,28.50,31.52,13.95,48.02,1017.60,2022.89,3381.99,3066.96,3524.99,600.41,593.97,19.62,0000 0000 0000 0000 000000
2018-07-14 01:50:00,0.01,0.07,0.00,24.53,28.49,31.50,13.91,48.04,1017.61,2022.96,3381.98,3066.97,3524.99,600.27,593.85,19.67,0000 0000 0000 0000 000000
2018-07-14 01:55:02,0.00,0.07,0.00,24.53,28.47,31.48,13.96,48.02,1017.60,2022.97,3381.99,3066.98,3524.99,600.08,593.66,19.72,0000 0000 0000 0000 000000
2018-07-14 02:00:03,0.00,0.07,0.00,24.52,28.46,31.47,13.90,48.25,1017.61,2022.98,3381.98,3066.98,3524.99,600.16,593.69,19.77,0000 0000 0000 0000 000000
2018-07-14 02:05:04,-0.00,0.07,0.00,24.50,28.45,31.43,13.90,48.32,1017.65,2022.98,3381.98,3066.99,3524.99,599.93,593.48,19.82,0000 0000 0000 0000 000000
2018-07-14 02:10:05,-0.00,0.07,0.00,24.51,28.45,31.44,13.95,48.42,1017.64,2022.99,3381.98,3066.99,3524.99,600.20,593.87,19.87,0000 0000 0000 0000 000000
2018-07-14 02:15:07,0.00,0.07,0.00,24.51,28.42,31.43,13.96,48.26,1017.67,2022.99,3381.99,3067.00,3525.02,600.21,593.97,19.92,0000 0000 0000 0000 000000
2018-07-14 02:20:08,0.00,0.07,0.00,24.50,28.42,31.43,13.98,48.33,1017.82,2022.99,3381.99,3067.01,3525.05,600.37,594.19,19.97,0000 0000 0000 0000 000000
2018-07-14 02:25:09,0.00,0.07,0.00,24.48,28.40,31.41,13.96,48.35,1017.76,2022.99,3381.99,3067.01,3525.03,600.33,594.08,20.02,0000 0000 0000 0000 000000
2018-07-14 02:30:10,0.00,0.07,0.00,24.47,28.40,31.40,13.94,48.34,1017.67,2022.99,3381.99,3067.01,3525.01,600.17,593.90,20.07,0000 0000 0000 0000 000000
2018-07-14 02:35:12,0.00,0.07,0.00,24.47,28.39,31.39,13.92,48.31,1017.68,2022.99,3381.99,3067.06,3525.10,600.16,593.85,20.12,0000 0000 0000 0000 000000
2018-07-14 02:40:13,-0.01,0.07,0.00,24.47,28.37,31.37,13.83,48.23,1017.61,2023.00,3381.99,3067.17,3525.38,599.58,593.21,20.17,0000 0000 0000 0000 000000
2018-07-14 02:45:14,-0.01,0.07,0.00,24.46,28.37,31.39,13.92,48.31,1017.59,2023.01,3382.01,3067.40,3525.53,600.02,593.80,20.22,0000 0000 0000 0000 000000
2018-07-14 02:50:15,0.00,0.07,0.00,24.47,28.36,31.37,13.86,48.17,1017.61,2023.05,3382.01,3067.76,3525.83,599.75,593.47,20.27,0000 0000 0000 0000 000000
2018-07-14 02:55:17,-0.01,0.07,0.00,24.47,28.35,31.36,13.95,48.40,1017.61,2023.11,3382.03,3067.94,3525.96,600.08,593.76,20.32,0000 0000 0000 0000 000000
2018-07-14 03:00:18,0.00,0.07,0.00,24.47,28.35,31.35,13.88,48.46,1017.63,2023.15,3382.01,3067.94,3525.95,599.90,593.60,20.37,0000 0000 0000 0000 000000
2018-07-14 03:05:19,-0.00,0.07,0.00,24.46,28.34,31.33,13.92,48.44,1017.61,2023.12,3382.00,3067.91,3525.86,599.79,593.26,20.42,0000 0000 0000 0000 000000
2018-07-14 03:10:21,0.00,0.07,0.00,24.45,28.32,31.31,13.88,48.58,1017.66,2023.13,3382.00,3067.92,3525.87,600.12,593.81,20.47,0000 0000 0000 0000 000000
2018-07-14 03:15:22,0.02,0.07,0.00,24.45,28.32,31.33,14.01,48.85,1017.63,2023.29,3382.00,3067.92,3525.87,600.14,593.88,20.52,0000 0000 0000 0000 000000
2018-07-14 03:20:23,-0.02,0.07,0.00,24.45,28.32,31.32,13.94,48.68,1017.62,2023.22,3382.00,3067.96,3525.89,599.97,593.52,20.57,0000 0000 0000 0000 000000
2018-07-14 03:25:25,-0.01,0.07,0.00,24.45,28.31,31.30,13.91,48.71,1017.63,2023.11,3382.02,3067.97,3525.77,600.00,593.68,20.62,0000 0000 0000 0000 000000
2018-07-14 03:30:25,0.01,0.07,0.00,24.45,28.30,31.28,13.87,48.67,1017.61,2023.24,3382.01,3067.98,3525.90,600.02,593.78,20.67,0000 0000 0000 0000 000000
2018-07-14 03:35:27,-0.00,0.07,0.00,24.45,28.30,31.27,13.93,48.69,1017.61,2023.41,3382.04,3067.99,3525.95,600.03,593.82,20.72,0000 0000 0000 0000 000000
2018-07-14 03:40:28,-0.02,0.07,0.00,24.45,28.30,31.28,13.87,48.58,1017.60,2023.15,3382.02,3067.98,3525.93,600.04,593.70,20.77,0000 0000 0000 0000 000000
2018-07-14 03:45:30,0.01,0.07,0.00,24.45,28.30,31.27,13.89,48.66,1017.62,2023.25,3382.06,3067.99,3525.95,600.16,593.87,20.82,0000 0000 0000 0000 000000
2018-07-14 03:50:31,0.03,0.07,0.00,24.44,28.29,31.26,13.99,48.52,1017.62,2023.61,3382.12,3067.99,3525.98,600.02,593.76,20.87,0000 0000 0000 0000 000000
2018-07-14 03:55:32,0.02,0.07,0.00,24.45,28.28,31.26,13.85,48.52,1017.62,2023.84,3382.28,3067.99,3525.99,599.73,593.44,20.92,0000 0000 0000 0000 000000
2018-07-14 04:00:33,-0.01,0.07,0.00,24.45,28.27,31.27,13.84,48.46,1017.61,2023.83,3382.18,3067.99,3525.98,599.46,593.21,20.97,0000 0000 0000 0000 000000
2018-07-14 04:05:35,-0.00,0.07,0.00,24.46,28.27,31.23,13.89,48.30,1017.60,2023.79,3382.03,3067.99,3525.98,599.77,593.53,21.02,0000 0000 0000 0000 000000
2018-07-14 04:10:36,0.02,0.07,0.00,24.47,28.27,31.25,13.93,48.48,1017.63,2023.84,3382.01,3067.99,3525.99,599.84,593.53,21.07,0000 0000 0000 0000 000000
2018-07-14 04:15:37,-0.00,0.07,0.00,24.47,28.27,31.24,13.92,48.46,1017.64,2023.86,3382.01,3067.99,3525.97,599.86,593.54,21.12,0000 0000 0000 0000 000000
2018-07-14 04:20:39,-0.00,0.07,0.00,24.47,28.27,31.24,13.90,48.34,1017.60,2023.85,3382.02,3067.99,3525.97,599.38,592.98,21.17,0000 0000 0000 0000 000000
2018-07-14 04:25:40,0.01,0.07,0.00,24.49,28.27,31.25,13.95,48.37,1017.59,2023.92,3382.01,3067.99,3525.96,599.66,593.23,21.22,0000 0000 0000 0000 000000
2018-07-14 04:30:41,-0.00,0.07,0.00,24.50,28.27,31.22,13.92,48.48,1017.59,2023.89,3382.01,3067.99,3525.91,599.99,593.60,21.27,0000 0000 0000 0000 000000
2018-07-14 04:35:43,0.00,0.07,0.00,24.52,28.27,31.25,13.99,48.32,1017.59,2023.87,3382.00,3067.99,3525.73,600.02,593.70,21.32,0000 0000 0000 0000 000000
2018-07-14 04:40:44,-0.01,0.07,0.00,24.52,28.27,31.23,13.88,48.39,1017.60,2023.73,3381.99,3067.99,3525.49,600.07,593.40,21.37,0000 0000 0000 0000 000000
2018-07-14 04:45:45,0.01,0.07,0.00,24.53,28.28,31.21,14.00,48.42,1017.60,2023.78,3381.98,3067.99,3525.46,600.60,594.19,21.42,0000 0000 0000 0000 000000
2018-07-14 04:50:47,-0.02,0.07,0.00,24.53,28.29,31.22,13.90,48.39,1017.60,2023.80,3381.98,3067.99,3525.38,600.33,593.87,21.47,0000 0000 0000 0000 000000
2018-07-14 04:55:48,0.00,0.07,0.00,24.55,28.30,31.20,13.93,48.46,1017.59,2023.74,3381.97,3067.99,3525.16,600.09,593.70,21.52,0000 0000 0000 0000 000000
2018-07-14 05:00:49,-0.02,0.07,0.00,24.55,28.30,31.21,13.86,48.31,1017.59,2023.31,3381.81,3067.95,3525.01,600.12,593.66,21.57,0000 0000 0000 0000 000000
2018-07-14 05:05:50,-0.02,0.07,0.00,24.57,28.30,31.21,13.89,48.27,1017.59,2023.14,3381.87,3067.95,3525.01,599.99,593.62,21.62,0000 0000 0000 0000 000000
2018-07-14 05:10:52,-0.00,0.07,0.00,24.57,28.30,31.23,13.91,48.45,1017.59,2023.14,3381.80,3067.93,3525.00,599.74,593.25,21.67,0000 0000 0000 0000 000000
2018-07-14 05:15:53,0.00,0.07,0.00,24.60,28.32,31.21,13.89,48.38,1017.58,2023.08,3381.73,3067.86,3525.00,599.58,593.01,21.72,0000 0000 0000 0000 000000
2018-07-14 05:20:54,0.01,0.07,0.00,24.61,28.32,31.20,13.89,48.23,1017.56,2023.08,3381.41,3067.73,3525.00,599.72,593.11,21.77,0000 0000 0000 0000 000000
2018-07-14 05:25:55,0.01,0.07,0.00,24.61,28.32,31.22,13.82,48.28,1017.43,2023.09,3381.09,3067.38,3525.00,599.32,592.56,21.82,0000 0000 0000 0000 000000
2018-07-14 05:30:56,0.01,0.07,0.00,24.63,28.34,31.22,13.93,48.23,1017.29,2023.09,3381.04,3067.23,3524.99,599.99,593.11,21.87,0000 0000 0000 0000 000000
2018-07-14 05:35:57,-0.00,0.07,0.00,24.67,28.35,31.18,13.90,48.33,1017.17,2023.03,3381.00,3067.05,3524.97,599.79,592.80,21.92,0000 0000 0000 0000 000000
2018-07-14 05:40:59,-0.00,0.07,0.00,24.69,28.35,31.19,13.98,48.48,1017.16,2023.03,3381.02,3067.09,3524.94,600.44,593.28,21.97,0000 0000 0000 0000 000000
2018-07-14 05:46:00,0.00,0.07,0.00,24.72,28.37,31.20,13.84,48.33,1017.17,2023.02,3381.00,3067.05,3524.86,600.18,593.12,22.02,0000 0000 0000 0000 000000
2018-07-14 05:51:01,0.00,0.07,0.00,24.72,28.37,31.19,13.84,48.35,1017.13,2023.01,3381.00,3067.02,3524.48,600.09,593.00,22.07,0000 0000 0000 0000 000000
2018-07-14 05:56:03,0.00,0.07,0.00,24.73,28.40,31.20,13.92,48.29,1017.15,2023.00,3381.00,3067.01,3524.19,599.98,592.79,22.12,0000 0000 0000 0000 000000
2018-07-14 06:01:04,0.00,0.07,0.00,24.75,28.40,31.23,13.94,48.25,1017.14,2023.01,3380.99,3067.01,3524.07,600.14,592.99,22.18,0000 0000 0000 0000 000000
2018-07-14 06:06:05,0.00,0.07,0.00,24.75,28.42,31.16,13.87,47.99,1017.13,2023.00,3380.98,3067.00,3524.04,599.83,592.48,22.23,0000 0000 0000 0000 000000
2018-07-14 06:11:06,0.00,0.07,0.00,24.77,28.42,31.20,13.92,48.13,1017.12,2023.00,3380.77,3067.00,3524.00,599.96,592.74,22.28,0000 0000 0000 0000 000000
2018-07-14 06:16:07,0.00,0.07,0.00,24.79,28.44,31.19,13.90,48.00,1017.12,2023.00,3380.40,3066.96,3523.99,600.05,592.91,22.33,0000 0000 0000 0000 000000
2018-07-14 06:21:09,0.00,0.07,0.00,24.81,28.45,31.21,13.89,48.08,1017.11,2022.99,3380.07,3066.87,3523.98,600.17,592.85,22.38,0000 0000 0000 0000 000000
2018-07-14 06:26:10,0.02,0.07,0.00,24.83,28.47,31.20,13.93,48.16,1017.12,2022.98,3380.00,3066.27,3523.66,599.89,592.57,22.43,0000 0000 0000 0000 000000
2018-07-14 06:31:11,0.01,0.07,0.00,24.83,28.47,31.18,13.84,47.92,1017.11,2022.95,3379.99,3066.04,3523.15,600.34,593.06,22.48,0000 0000 0000 0000 000000
2018-07-14 06:36:13,0.00,0.07,0.00,24.87,28.50,31.22,13.83,48.02,1017.11,2022.96,3379.99,3066.03,3523.07,599.85,592.37,22.53,0000 0000 0000 0000 000000
2018-07-14 06:41:14,-0.01,0.07,0.00,24.90,28.50,31.21,13.85,48.16,1017.11,2022.88,3379.99,3066.00,3523.01,599.89,592.50,22.58,0000 0000 0000 0000 000000
2018-07-14 06:46:15,0.00,0.07,0.00,24.93,28.52,31.16,13.82,47.83,1017.12,2022.84,3379.90,3066.00,3523.00,600.06,592.60,22.63,0000 0000 0000 0000 000000
2018-07-14 06:51:16,-0.03,0.07,0.00,24.95,28.54,31.17,13.89,48.05,1017.12,2022.58,3379.63,3066.00,3523.00,600.19,592.68,22.68,0000 0000 0000 0000 000000
2018-07-14 06:56:17,-0.03,0.07,0.00,24.98,28.55,31.15,13.77,48.02,1017.11,2022.15,3379.30,3065.97,3522.94,599.72,592.02,22.73,0000 0000 0000 0000 000000
2018-07-14 07:01:19,0.00,0.07,0.00,25.01,28.57,31.18,13.77,47.92,1017.12,2022.05,3379.04,3065.93,3522.66,599.77,592.00,22.78,0000 0000 0000 0000 000000
2018-07-14 07:06:20,0.00,0.07,0.00,25.03,28.60,31.19,13.83,47.90,1017.11,2022.08,3379.01,3065.91,3522.44,599.96,592.38,22.83,0000 0000 0000 0000 000000
2018-07-14 07:11:21,0.01,0.07,0.00,25.05,28.61,31.19,13.87,48.32,1017.11,2022.01,3379.00,3065.46,3522.10,600.15,592.38,22.88,0000 0000 0000 0000 000000
2018-07-14 07:16:22,0.00,0.07,0.00,25.06,28.62,31.21,13.92,48.30,1017.11,2022.00,3378.98,3065.05,3522.00,599.98,592.21,22.93,0000 0000 0000 0000 000000
2018-07-14 07:21:23,0.00,0.07,0.00,25.08,28.65,31.23,13.84,48.29,1017.11,2022.00,3378.97,3065.01,3521.99,599.95,592.03,22.98,0000 0000 0000 0000 000000
2018-07-14 07:26:25,0.01,0.07,0.00,25.10,28.66,31.26,13.82,48.48,1017.12,2022.00,3378.57,3065.00,3521.95,600.28,592.31,23.03,0000 0000 0000 0000 000000
2018-07-14 07:31:26,0.00,0.07,0.00,25.13,28.68,31.26,13.76,48.42,1017.13,2021.99,3378.20,3065.00,3521.60,599.82,591.89,23.08,0000 0000 0000 0000 000000
2018-07-14 07:36:27,0.00,0.07,0.00,25.16,28.70,31.30,13.87,48.37,1017.14,2021.99,3378.07,3064.99,3521.33,600.01,592.08,23.13,0000 0000 0000 0000 000000
2018-07-14 07:41:28,0.00,0.07,0.00,25.18,28.72,31.29,13.78,48.24,1017.17,2021.97,3378.00,3064.87,3521.04,599.79,591.71,23.18,0000 0000 0000 0000 000000
2018-07-14 07:46:30,0.01,0.08,0.00,25.20,28.73,31.31,13.90,48.32,1017.24,2021.96,3377.99,3064.54,3521.00,600.02,591.97,23.23,0000 0000 0000 0000 000000
2018-07-14 07:51:31,-0.00,0.08,0.00,25.22,28.75,31.33,13.86,48.31,1017.38,2021.88,3377.97,3064.12,3521.00,599.92,592.01,23.28,0000 0000 0000 0000 000000
2018-07-14 07:56:32,-0.01,0.07,0.00,25.23,28.77,31.34,13.89,48.20,1017.26,2021.64,3377.67,3064.02,3520.98,600.01,591.91,23.33,0000 0000 0000 0000 000000
2018-07-14 08:01:34,-0.03,0.07,0.00,25.25,28.78,31.37,13.82,48.13,1017.36,2021.30,3377.14,3064.00,3520.87,599.85,591.97,23.38,0000 0000 0000 0000 000000
2018-07-14 08:06:35,0.00,0.07,0.00,25.26,28.80,31.39,13.85,48.17,1017.47,2021.15,3377.03,3064.00,3520.59,600.14,592.03,23.43,0000 0000 0000 0000 000000
2018-07-14 08:11:36,0.06,0.08,0.00,25.28,28.82,31.38,13.83,48.16,1017.45,2021.62,3376.97,3063.99,3520.26,599.86,591.89,23.48,0000 0000 0000 0000 000000
2018-07-14 08:16:37,0.01,0.08,0.00,25.30,28.83,31.43,13.86,48.20,1017.53,2021.67,3376.33,3063.90,3520.01,600.29,592.17,23.53,0000 0000 0000 0000 000000
2018-07-14 08:21:38,-0.01,0.08,0.00,25.32,28.85,31.42,13.75,48.00,1017.51,2021.52,3376.05,3063.49,3520.00,599.87,591.66,23.58,0000 0000 0000 0000 000000
2018-07-14 08:26:40,0.02,0.08,0.00,25.35,28.87,31.46,13.80,48.05,1017.49,2021.37,3375.71,3062.87,3519.65,599.60,591.55,23.63,0000 0000 0000 0000 000000
2018-07-14 08:31:41,0.03,0.08,0.00,25.35,28.89,31.46,13.85,48.02,1017.37,2021.07,3374.29,3062.07,3518.72,600.05,591.83,23.68,0000 0000 0000 0000 000000
2018-07-14 08:36:42,0.00,0.08,0.00,25.37,28.90,31.49,13.82,47.97,1017.35,2021.01,3374.01,3062.00,3518.14,599.77,591.54,23.73,0000 0000 0000 0000 000000
2018-07-14 08:41:44,0.00,0.08,0.00,25.39,28.92,31.50,13.75,47.93,1017.33,2021.00,3373.99,3061.99,3518.02,599.74,591.59,23.78,0000 0000 0000 0000 000000
2018-07-14 08:46:45,0.01,0.08,0.00,25.42,28.95,31.53,13.83,47.95,1017.22,2021.00,3373.83,3061.96,3518.00,600.08,591.62,23.83,0000 0000 0000 0000 000000
2018-07-14 08:51:47,0.02,0.08,0.00,25.43,28.96,31.55,13.84,47.98,1017.37,2021.00,3373.39,3061.54,3517.99,600.37,591.95,23.88,0000 0000 0000 0000 000000
2018-07-14 08:56:48,0.01,0.08,0.00,25.46,28.98,31.56,13.79,47.82,1017.51,2021.00,3373.06,3061.10,3517.69,599.99,591.66,23.93,0000 0000 0000 0000 000000
2018-07-14 09:01:49,0.00,0.08,0.00,25.48,29.00,31.58,13.79,47.88,1017.52,2020.98,3373.00,3061.00,3517.10,599.82,591.38,23.98,0000 0000 0000 0000 000000
2018-07-14 09:06:50,0.00,0.08,0.00,25.48,29.01,31.57,13.85,48.01,1017.55,2020.98,3373.00,3061.00,3517.00,600.07,591.62,24.03,0000 0000 0000 0000 000000
2018-07-14 09:11:51,-0.02,0.08,0.00,25.51,29.03,31.61,13.88,47.96,1017.51,2020.79,3372.91,3060.98,3517.00,600.24,591.66,24.08,0000 0000 0000 0000 000000
2018-07-14 09:16:53,0.01,0.08,0.00,25.52,29.05,31.64,13.79,47.84,1017.53,2020.63,3372.27,3060.82,3516.95,600.02,591.56,24.13,0000 0000 0000 0000 000000
2018-07-14 09:21:54,0.04,0.08,0.00,25.55,29.07,31.65,13.87,47.83,1017.54,2020.68,3372.12,3060.38,3516.63,600.22,591.76,24.18,0000 0000 0000 0000 000000
2018-07-14 09:26:55,-0.03,0.08,0.00,25.57,29.10,31.67,13.79,48.24,1017.55,2020.44,3372.00,3060.05,3516.09,599.97,591.50,24.23,0000 0000 0000 0000 000000
2018-07-14 09:31:56,-0.02,0.08,0.00,25.57,29.11,31.69,13.84,48.07,1017.54,2020.10,3371.99,3060.01,3516.00,600.35,591.78,24.28,0000 0000 0000 0000 000000
2018-07-14 09:36:57,-0.00,0.08,0.00,25.59,29.13,31.70,13.80,47.88,1017.52,2020.01,3371.86,3060.00,3516.00,600.18,591.57,24.33,0000 0000 0000 0000 000000
2018-07-14 09:41:59,0.01,0.08,0.00,25.60,29.15,31.73,13.81,47.75,1017.57,2020.00,3371.32,3059.98,3515.95,600.12,591.55,24.38,0000 0000 0000 0000 000000
2018-07-14 09:47:00,0.02,0.08,0.00,25.63,29.17,31.74,13.88,48.13,1017.54,2020.00,3371.02,3059.74,3515.51,600.63,591.95,24.43,0000 0000 0000 0000 000000
2018-07-14 09:52:02,0.01,0.08,0.00,25.65,29.19,31.75,13.79,47.79,1017.47,2020.00,3370.98,3059.15,3515.03,599.91,591.21,24.48,0000 0000 0000 0000 000000
2018-07-14 09:57:03,0.00,0.08,0.00,25.68,29.20,31.77,13.72,47.89,1017.46,2020.00,3370.86,3059.02,3515.00,600.08,591.29,24.53,0000 0000 0000 0000 000000
2018-07-14 10:02:04,0.01,0.08,0.00,25.71,29.22,31.77,13.82,47.76,1017.47,2019.99,3370.36,3059.00,3514.99,600.18,591.30,24.58,0000 0000 0000 0000 000000
2018-07-14 10:07:06,0.00,0.08,0.00,25.73,29.24,31.78,13.88,47.80,1017.53,2019.98,3370.04,3058.99,3514.76,600.57,591.68,24.63,0000 0000 0000 0000 000000
2018-07-14 10:12:07,0.00,0.08,0.00,25.77,29.26,31.79,13.88,48.13,1017.50,2019.94,3370.01,3058.94,3514.18,599.91,590.87,24.68,0000 0000 0000 0000 000000
2018-07-14 10:17:08,0.01,0.08,0.00,25.82,29.28,31.80,13.82,47.69,1017.36,2019.94,3369.98,3058.60,3514.02,599.83,590.68,24.73,0000 0000 0000 0000 000000
2018-07-14 10:22:10,-0.05,0.08,0.00,25.88,29.31,31.79,13.74,47.63,1017.24,2019.47,3369.97,3058.11,3514.00,600.14,590.75,24.78,0000 0000 0000 0000 000000
2018-07-14 10:27:11,-0.02,0.08,0.00,25.96,29.34,31.78,13.70,47.83,1017.13,2019.05,3369.94,3058.01,3513.97,599.61,590.11,24.83,0000 0000 0000 0000 000000
2018-07-14 10:32:12,0.01,0.08,0.00,26.04,29.37,31.80,13.69,47.92,1017.12,2019.00,3369.68,3058.00,3513.38,599.80,590.06,24.88,0000 0000 0000 0000 000000
2018-07-14 10:37:14,0.01,0.08,0.00,26.13,29.41,31.85,13.69,47.97,1017.12,2018.99,3369.11,3057.89,3513.02,599.32,589.46,24.93,0000 0000 0000 0000 000000
2018-07-14 10:42:15,0.02,0.08,0.00,26.22,29.45,31.93,13.71,48.00,1017.18,2018.98,3369.00,3057.20,3512.96,600.06,590.12,24.98,0000 0000 0000 0000 000000
2018-07-14 10:47:16,0.00,0.08,0.00,26.31,29.50,32.03,13.79,48.27,1017.30,2018.91,3368.89,3057.01,3512.37,600.09,589.92,25.03,0000 0000 0000 0000 000000
2018-07-14 10:52:17,-0.05,0.08,0.00,26.41,29.54,32.14,13.71,48.07,1017.47,2018.29,3368.24,3056.98,3512.01,599.93,589.63,25.08,0000 0000 0000 0000 000000
2018-07-14 10:57:18,0.01,0.08,0.00,26.48,29.59,32.27,13.76,47.88,1017.49,2018.02,3368.00,3056.42,3511.91,599.89,589.37,25.13,0000 0000 0000 0000 000000
2018-07-14 11:02:20,0.02,0.08,0.00,26.59,29.64,32.36,13.81,47.81,1017.50,2018.00,3367.45,3056.01,3511.15,600.05,589.57,25.18,0000 0000 0000 0000 000000
2018-07-14 11:07:21,0.00,0.08,0.00,26.72,29.70,32.47,13.78,47.77,1017.40,2018.00,3367.01,3055.98,3510.98,600.44,589.51,25.23,0000 0000 0000 0000 000000
2018-07-14 11:12:22,0.03,0.09,0.00,26.87,29.75,32.56,13.72,47.78,1017.41,2018.00,3366.89,3055.49,3510.37,600.30,589.10,25.28,0000 0000 0000 0000 000000
2018-07-14 11:17:24,0.02,0.09,0.00,27.00,29.79,32.63,13.68,47.75,1017.46,2017.92,3366.07,3055.01,3510.00,600.00,588.63,25.34,0000 0000 0000 0000 000000
2018-07-14 11:22:25,-0.05,0.08,0.00,27.11,29.84,32.70,13.69,47.54,1017.50,2017.40,3365.99,3054.89,3509.75,599.90,588.29,25.39,0000 0000 0000 0000 000000
2018-07-14 11:27:26,0.03,0.09,0.00,27.21,29.89,32.74,13.74,47.59,1017.54,2017.07,3365.39,3054.11,3509.06,599.89,588.12,25.44,0000 0000 0000 0000 000000
2018-07-14 11:32:27,0.00,0.09,0.00,27.27,29.94,32.76,13.70,47.45,1017.57,2017.00,3365.01,3053.99,3508.96,599.89,588.09,25.49,0000 0000 0000 0000 000000
2018-07-14 11:37:29,0.03,0.09,0.00,27.29,29.99,32.75,13.72,47.43,1017.59,2016.98,3364.80,3053.68,3508.20,599.87,587.97,25.54,0000 0000 0000 0000 000000
2018-07-14 11:42:30,0.02,0.09,0.00,27.22,30.03,32.72,13.68,47.46,1017.59,2016.94,3364.05,3053.04,3507.99,599.68,588.00,25.59,0000 0000 0000 0000 000000
2018-07-14 11:47:32,-0.04,0.09,0.00,27.11,30.07,32.81,13.68,47.58,1017.59,2016.60,3364.00,3053.00,3507.80,599.87,588.51,25.64,0000 0000 0000 0000 000000
2018-07-14 11:52:33,-0.02,0.08,0.00,26.98,30.11,32.82,13.72,47.47,1017.58,2016.08,3363.79,3052.97,3507.12,599.65,588.35,25.69,0000 0000 0000 0000 000000
2018-07-14 11:57:34,0.02,0.09,0.00,26.87,30.13,32.86,13.77,47.47,1017.47,2016.01,3363.07,3052.45,3507.00,599.73,588.50,25.74,0000 0000 0000 0000 000000
2018-07-14 12:02:35,0.00,0.09,0.00,26.79,30.16,32.88,13.71,47.43,1017.30,2016.00,3363.00,3052.06,3506.92,600.07,588.96,25.79,0000 0000 0000 0000 000000
2018-07-14 12:07:36,0.01,0.09,0.00,26.72,30.18,32.93,13.76,47.50,1017.21,2016.00,3362.98,3052.00,3506.50,599.96,589.03,25.84,0000 0000 0000 0000 000000
2018-07-14 12:12:37,0.01,0.09,0.00,26.66,30.20,33.06,13.82,47.57,1017.19,2016.00,3362.64,3052.00,3506.04,600.27,589.31,25.89,0000 0000 0000 0000 000000
2018-07-14 12:17:38,0.00,0.09,0.00,26.60,30.21,33.15,13.83,47.58,1017.14,2015.99,3362.05,3051.96,3506.00,600.24,589.41,25.94,0000 0000 0000 0000 000000
2018-07-14 12:22:40,0.00,0.09,0.00,26.56,30.22,33.15,13.78,47.48,1017.13,2015.99,3362.00,3051.92,3506.00,599.86,589.07,25.99,0000 0000 0000 0000 000000
2018-07-14 12:27:41,0.01,0.09,0.00,26.53,30.22,33.22,13.80,47.59,1017.12,2015.96,3362.00,3051.52,3505.96,600.05,589.36,26.04,0000 0000 0000 0000 000000
2018-07-14 12:32:42,-0.00,0.09,0.00,26.51,30.24,33.23,13.76,47.42,1017.11,2015.94,3361.99,3051.16,3505.89,599.97,589.34,26.09,0000 0000 0000 0000 000000
2018-07-14 12:37:43,0.00,0.09,0.00,26.50,30.25,33.25,13.80,47.33,1017.11,2015.83,3361.78,3051.06,3505.40,600.10,589.41,26.14,0000 0000 0000 0000 000000
2018-07-14 12:42:45,0.00,0.09,0.00,26.49,30.25,33.25,13.80,47.59,1017.11,2015.78,3361.30,3051.01,3505.13,599.93,589.33,26.19,0000 0000 0000 0000 000000
2018-07-14 12:47:46,0.01,0.09,0.00,26.47,30.25,33.21,13.83,47.55,1017.11,2015.82,3361.05,3051.00,3505.02,600.02,589.44,26.24,0000 0000 0000 0000 000000
2018-07-14 12:52:47,-0.01,0.09,0.00,26.47,30.25,33.22,13.79,47.63,1017.12,2015.74,3361.02,3051.00,3505.01,599.82,589.20,26.29,0000 0000 0000 0000 000000
2018-07-14 12:57:48,-0.02,0.09,0.00,26.46,30.25,33.23,13.77,47.55,1017.12,2015.53,3361.00,3051.00,3505.00,600.08,589.46,26.34,0000 0000 0000 0000 000000